Location: A O Calhoun Middle School
(33.2198°N, 97.1397°W)
Time: 05:06:07
(UTC+00:00)

H-2A R/B - Pass Details

Date: 04 July 2022
Orbit: 576 x 652 km, 98.5° (Epoch: 17 August)

Event Time Altitude Azimuth Distance (km) Brightness Sun altitude
Rises 03:25:40 0° 359° (N) 2,944 6.3 -18.3°
Reaches altitude 10° 03:28:06 10° 347° (NNW) 2,041 5.6 -18.7°
Maximum altitude 03:31:53 28° 289° (WNW) 1,221 4.2 -19.2°
Drops below altitude 10° 03:35:40 10° 231° (SW) 2,050 4.8 -19.8°
Sets 03:38:08 0° 220° (SW) 2,959 5.5 -20.1°
